Rbgn^[z[y[W
メイン
   新天体発見情報
     Comet C/2025 K1 (ATLAS)
投稿するにはまず登録を

スレッド表示 | 新しいものから 前のトピック | 次のトピック | 下へ
投稿者 スレッド
佐藤裕久
投稿日時: 2025-6-12 17:51
モデレータ
登録日: 2005-6-12
居住地: 日本
投稿: 2670
オンライン
Comet C/2025 K1 (ATLAS)

5月24日UT、チリ Rio Hurtadoにある小惑星地球衝突最終警報システム Asteroid Terrestrial-impact 
Last Alert System (ATLAS)調査プログラムのコースに0.5-m f/2 Schmidt反射望遠鏡で得たCCD画像か
ら見かけ上小惑星状天体が発見された。
小惑星センターのNEOCPとPCCP webpageに公表後、他のCCD位置観測者によって彗星状であることがわか
った。
A. Hale (Cloudcroft、ニューメキシコ州、米国)は、5月25.13日UT、南アフリカのSutherlandにある
0.35-m f/3 Cassegrain反射望遠鏡で得た180-秒のCCD露出から、類似の明るさの恒星と比べやや拡散
し集光した頭部(17.9-18.3等)が確認されたが、尾はなかった。彼は、さらに、5月26.15日、カナリア
諸島のTenerifeにある0.35-m f/3 Cassegrain反射望遠鏡で得た180-秒CCD露出では、尾のない集光し
拡散した5"のコマを観測した。
佐藤英貴氏(東京都文京区)は、5月26.43日、Utah Desert Remote 天文台(Beryl Junction 近郊, ユタ
州, 米国, 遠隔操作)の0.51-m f/6.8 アストログラフで得た8枚のスタックした60-秒CCD露出では、恒
星状に見えるだけであった。4".9の円形範囲で測定した光度は17.7等と観測した。
吉本勝巳氏(山口県熊毛郡平生町)は、5月27.4日、Utah Desert Remote 天文台(Beryl Junction 近郊, 
ユタ州, 米国, 遠隔操作)の0.51-m f/6.8 アストログラフで得た8枚のスタックした60-秒CCD露出では、
集光した15"のコマとp.a. 260 °にかすかな尾が見え、全光度は17.8等と観測した。

彗星機能の報告は次のとおり、

OC   Date        Reporter            Coma    Tail   PA   Comet     Date
                                                        (T/P)   Reported
I41  2025-05-19  Q.-Z. Ye            2"        8"  260    T   2025-05-26.99
L09  2025-05-25  A. Hale             6"                   P   2025-05-25.17
U69  2025-05-25  M. Mattiazzo        8"                   T   2025-05-26.41
T14  2025-05-26  R. Weryk            0".7     11"  255    T   2025-05-26.63
L81  2025-05-26  J. Camarasa         8".6                 T   2025-05-26.54
Z17  2025-05-26  A. Hale             5"                   T   2025-05-26.18
V21  2025-05-26  D. T. Durig         6"       10"  270    T   2025-05-26.56
W62  2025-05-27  J. Maikner         10"                   T   2025-05-27.30
U94  2025-05-27  K. Yoshimoto       15"        8"  260    T   2025-05-27.49

発見位置は次のとおり(NEOCP & PCCP A11nyuL)、

     2025 UT             R.A. (2000) Decl.       Mag.
     May  24.35354   22 25 46.46   +15 07 01.6   18.6
          24.35670   22 25 46.47   +15 07 04.0   18.5
          24.36215   22 25 46.51   +15 07 07.0   18.3
          24.37938   22 25 46.65   +15 07 14.8   18.3

MPCの双曲線軌道要素は次のとおり、

Orbital elements:
    C/2025 K1 (ATLAS)                                                           
Epoch 2025 May 5.0 TT = JDT 2460800.5                                           
T 2025 Oct. 8.33916 TT                                  Veres                   
q   0.3351636            (2000.0)            P               Q                  
z  -0.0041537      Peri.  270.82477     -0.84166674     -0.11831671             
 +/-0.0107225      Node    97.49385     +0.12310361     +0.90796778             
e   1.0013922      Incl.  147.89890     -0.52577810     +0.40198965             
From 85 observations 2025 May 19-27, mean residual 0".4.                        
                                                                                
Ephemeris:
Date    TT    R. A. (2000) Decl.     Delta      r    Elong.  Phase   m1
2025 04 27    22 16 08.9 +11 54 42   3.4051  3.0069    58.6    16.6  19.6
...
2025 05 12    22 22 35.5 +13 34 29   2.9840  2.8048    70.0    19.8  19.1
...
2025 05 20    22 24 55.7 +14 33 15   2.7483  2.6945    76.3    21.4  18.7
...
2025 05 26    22 25 59.9 +15 20 05   2.5676  2.6104    81.1    22.5  18.4
2025 05 27    22 26 06.5 +15 28 08   2.5373  2.5963    81.9    22.7  18.4
2025 05 28    22 26 11.9 +15 36 15   2.5068  2.5822    82.7    22.9  18.3
...
2025 06 03    22 26 14.4 +16 26 24   2.3229  2.4966    87.7    23.9  18.0
...
2025 06 11    22 24 42.6 +17 37 28   2.0756  2.3804    94.5    25.2  17.6
...
2025 06 26    22 14 25.8 +20 05 03   1.6131  2.1561   108.0    26.6  16.6

(MPEC 2025-K110、CBET 5557)

スレッド表示 | 新しいものから 前のトピック | 次のトピック | トップ

投稿するにはまず登録を
 
© 1999 Tsutomu Seki.